Location: Newark
(15.4608°S, 41.1635°W)
Time: 00:21:27
(UTC+00:00)

Vanguard 3 - Pass Details

Date: 07 August 2021
Orbit: 510 x 3260 km, 33.3° (Epoch: 20 September)

Event Time Altitude Azimuth Distance (km) Brightness Sun altitude
Rises 14:43:53 0° 264° (W) 2,686 9.8 58.3°
Reaches altitude 10° 14:46:17 10° 282° (WNW) 1,920 9.3 58.3°
Maximum altitude 14:49:32 21° 332° (NNW) 1,568 9.5 58.3°
Drops below altitude 10° 14:53:48 10° 20° (NNE) 2,600 10.4 58.3°
Sets 14:57:46 0° 34° (NE) 4,010 11.1 58.3°
